[TLELIST] Archives

 

[TLELIST] Current TLEs

May 29th 2025 PST

HST 1 20580U 90037B 25148.74308956 .00004405 00000-0 16272-3 0 9990 2 20580 28.4661 176.6963 0002399 226.3913 133.6482 15.25113950729716 ISS (ZARYA) 1 25544U 98067A 25149.19864947 .00011267 00000-0 20642-3 0 9993 2 25544 51.6390 41.1568 0002109 154.3269 311.4671 15.49816822512213 CXO 1 25867U 99040B 25150.92233503 .00000453 00000-0 00000-0 0 9992 2 25867 49.1909 130.4136 8453244 309.3333 359.6983 0.37804334 15870 ...Continue Reading

[TLELIST] Current TLEs

May 28th 2025 PST

HST 1 20580U 90037B 25147.43433874 .00003884 00000-0 14256-3 0 9993 2 20580 28.4666 185.5650 0002452 210.5005 149.5447 15.25102637729515 ISS (ZARYA) 1 25544U 98067A 25148.17144067 .00010950 00000-0 20102-3 0 9993 2 25544 51.6387 46.2443 0002189 151.9621 338.9406 15.49791589512054 CXO 1 25867U 99040B 25150.92233503 .00000453 00000-0 00000-0 0 9992 2 25867 49.1909 130.4136 8453244 309.3333 359.6983 0.37804334 15870 ...Continue Reading

[TLELIST] Current TLEs

May 28th 2025 PST

HST 1 20580U 90037B 25147.43433874 .00003884 00000-0 14256-3 0 9993 2 20580 28.4666 185.5650 0002452 210.5005 149.5447 15.25102637729515 ISS (ZARYA) 1 25544U 98067A 25148.17144067 .00010950 00000-0 20102-3 0 9993 2 25544 51.6387 46.2443 0002189 151.9621 338.9406 15.49791589512054 CXO 1 25867U 99040B 25150.92233503 .00000453 00000-0 00000-0 0 9992 2 25867 49.1909 130.4136 8453244 309.3333 359.6983 0.37804334 15870 ...Continue Reading

[TLELIST] Current TLEs

May 27th 2025 PST

HST 1 20580U 90037B 25145.47119615 .00004519 00000-0 16725-3 0 9998 2 20580 28.4672 198.8675 0002572 187.4840 172.5716 15.25088606729219 ISS (ZARYA) 1 25544U 98067A 25147.20450743 .00010885 00000-0 20003-3 0 9994 2 25544 51.6384 51.0343 0002206 149.5344 343.0812 15.49769564511908 CXO 1 25867U 99040B 25148.27720805 .00000466 00000-0 00000-0 0 9997 2 25867 49.1278 130.5537 8458673 309.2608 359.6903 0.37806381 15876 ...Continue Reading

[TLELIST] Current TLEs

May 26th 2025 PST

HST 1 20580U 90037B 25145.47119615 .00004519 00000-0 16725-3 0 9998 2 20580 28.4672 198.8675 0002572 187.4840 172.5716 15.25088606729219 ISS (ZARYA) 1 25544U 98067A 25145.82661484 .00010926 00000-0 20097-3 0 9995 2 25544 51.6367 57.8636 0002082 149.0639 211.0473 15.49737512511693 CXO 1 25867U 99040B 25148.27720805 .00000466 00000-0 00000-0 0 9997 2 25867 49.1278 130.5537 8458673 309.2608 359.6903 0.37806381 15876 ...Continue Reading

[TLELIST] Current TLEs

May 25th 2025 PST

HST 1 20580U 90037B 25144.55505639 .00004785 00000-0 17763-3 0 9999 2 20580 28.4675 205.0751 0002612 177.6256 182.4351 15.25081200729077 ISS (ZARYA) 1 25544U 98067A 25145.18176751 .00009555 00000-0 17689-3 0 9991 2 25544 51.6367 61.0572 0002106 146.1635 213.9488 15.49722006511598 CXO 1 25867U 99040B 25148.27644260 .00000466 00000-0 00000+0 0 9996 2 25867 49.1277 130.5537 8458679 309.2610 359.5856 0.37806053 27026 ...Continue Reading

[TLELIST] Current TLEs

May 24th 2025 PST

HST 1 20580U 90037B 25144.22786262 .00004692 00000-0 17402-3 0 9993 2 20580 28.4676 207.2921 0002628 173.9735 186.0892 15.25078055729286 ISS (ZARYA) 1 25544U 98067A 25144.21448524 .00011675 00000-0 21445-3 0 9995 2 25544 51.6361 65.8478 0002141 142.2972 217.8167 15.49703446511447 CXO 1 25867U 99040B 25145.63205801 .00000510 00000-0 00000-0 0 9998 2 25867 49.0430 130.7337 8462915 309.1597 359.7113 0.37809562 15851 ...Continue Reading

[TLELIST] Current TLEs

May 24th 2025 PST

HST 1 20580U 90037B 25144.22786262 .00004692 00000-0 17402-3 0 9993 2 20580 28.4676 207.2921 0002628 173.9735 186.0892 15.25078055729286 ISS (ZARYA) 1 25544U 98067A 25144.21448524 .00011675 00000-0 21445-3 0 9995 2 25544 51.6361 65.8478 0002141 142.2972 217.8167 15.49703446511447 CXO 1 25867U 99040B 25145.63205801 .00000510 00000-0 00000-0 0 9998 2 25867 49.0430 130.7337 8462915 309.1597 359.7113 0.37809562 15851 ...Continue Reading

[TLELIST] Current TLEs

May 24th 2025 PST

HST 1 20580U 90037B 25144.22786262 .00004692 00000-0 17402-3 0 9993 2 20580 28.4676 207.2921 0002628 173.9735 186.0892 15.25078055729286 ISS (ZARYA) 1 25544U 98067A 25144.21448524 .00011675 00000-0 21445-3 0 9995 2 25544 51.6361 65.8478 0002141 142.2972 217.8167 15.49703446511447 CXO 1 25867U 99040B 25145.63205801 .00000510 00000-0 00000-0 0 9998 2 25867 49.0430 130.7337 8462915 309.1597 359.7113 0.37809562 15851 ...Continue Reading

[TLELIST] Current TLEs

May 23rd 2025 PST

HST 1 20580U 90037B 25142.52644450 .00005376 00000-0 20070-3 0 9991 2 20580 28.4679 218.8202 0002743 155.9393 204.1329 15.25062245728760 ISS (ZARYA) 1 25544U 98067A 25143.33780704 .00008883 00000-0 16527-3 0 9998 2 25544 51.6384 70.1821 0002507 135.2816 10.7078 15.49679665511309 CXO 1 25867U 99040B 25145.63205767 .00000510 00000-0 00000-0 0 9999 2 25867 49.0431 130.7336 8462919 309.1598 359.7113 0.37809466 15859 ...Continue Reading
  • This mailing list is a public mailing list - anyone may join or leave, at any time.
  • This mailing list is announce-only.

International Space Station (ISS) / Hubble Space Telescope (HST) / Chandra X-Ray Observatory Orbital Data via EMAIL

Privacy Policy:

Private list